TimeEDT,TemperatureF,Dew PointF,Humidity,Sea Level PressureIn,VisibilityMPH,Wind Direction,Wind SpeedMPH,Gust SpeedMPH,PrecipitationIn,Events,Conditions,WindDirDegrees,DateUTC
12:53 AM,63.0,60.1,90,30.30,10.0,Calm,Calm,-,N/A,,Clear,0,2013-08-26 04:53:00
1:53 AM,61.0,59.0,93,30.28,10.0,Calm,Calm,-,N/A,,Clear,0,2013-08-26 05:53:00
2:53 AM,60.1,57.9,93,30.27,9.0,Calm,Calm,-,N/A,,Clear,0,2013-08-26 06:53:00
3:53 AM,60.1,57.9,93,30.27,10.0,Calm,Calm,-,N/A,,Clear,0,2013-08-26 07:53:00
4:53 AM,57.9,57.0,97,30.27,8.0,Calm,Calm,-,N/A,,Clear,0,2013-08-26 08:53:00
5:53 AM,59.0,57.0,93,30.27,8.0,Calm,Calm,-,N/A,,Clear,0,2013-08-26 09:53:00
6:53 AM,57.0,55.9,96,30.28,8.0,Calm,Calm,-,N/A,,Clear,0,2013-08-26 10:53:00
7:53 AM,61.0,59.0,93,30.29,7.0,Calm,Calm,-,N/A,,Overcast,0,2013-08-26 11:53:00
8:53 AM,64.0,61.0,90,30.30,9.0,Calm,Calm,-,N/A,,Overcast,0,2013-08-26 12:53:00
9:53 AM,71.1,64.0,78,30.31,10.0,North,3.5,-,N/A,,Clear,10,2013-08-26 13:53:00
10:53 AM,75.0,60.1,60,30.31,10.0,Calm,Calm,-,N/A,,Clear,0,2013-08-26 14:53:00
11:53 AM,77.0,61.0,58,30.30,10.0,Calm,Calm,-,N/A,,Clear,0,2013-08-26 15:53:00
12:53 PM,79.0,60.1,52,30.28,10.0,East,3.5,-,N/A,,Partly Cloudy,90,2013-08-26 16:53:00
1:53 PM,81.0,61.0,50,30.26,10.0,Calm,Calm,-,N/A,,Partly Cloudy,0,2013-08-26 17:53:00
2:53 PM,82.0,62.1,51,30.23,10.0,Variable,4.6,-,N/A,,Partly Cloudy,0,2013-08-26 18:53:00
3:53 PM,82.0,60.1,47,30.20,10.0,Calm,Calm,-,N/A,,Scattered Clouds,0,2013-08-26 19:53:00
4:53 PM,84.0,60.1,44,30.18,10.0,ENE,4.6,-,N/A,,Clear,60,2013-08-26 20:53:00
5:53 PM,82.9,59.0,44,30.16,10.0,Calm,Calm,-,N/A,,Clear,0,2013-08-26 21:53:00
6:53 PM,81.0,59.0,47,30.15,10.0,East,3.5,-,N/A,,Clear,100,2013-08-26 22:53:00
7:53 PM,71.1,66.9,87,30.15,10.0,Calm,Calm,-,N/A,,Clear,0,2013-08-26 23:53:00
8:53 PM,68.0,64.9,90,30.15,10.0,Calm,Calm,-,N/A,,Partly Cloudy,0,2013-08-27 00:53:00
9:53 PM,64.9,63.0,93,30.16,10.0,Calm,Calm,-,N/A,,Clear,0,2013-08-27 01:53:00
10:53 PM,63.0,62.1,97,30.16,8.0,Calm,Calm,-,N/A,,Clear,0,2013-08-27 02:53:00
11:53 PM,63.0,61.0,93,30.17,8.0,Calm,Calm,-,N/A,,Partly Cloudy,0,2013-08-27 03:53:00